{"data":{"norad_id":69111,"epoch":"2026-09-19T22:57:06.269184Z","epoch_age_seconds":70120,"freshness":"FRESH","line1":"1 69111U 26108H   26262.95632256  .00000034  00000+0  34449-4 0  9995","line2":"2 69111  89.0190  12.5725 0002188  97.1944 262.9456 13.51028635 17244","mean_motion":13.51028635,"eccentricity":0.0002188,"inclination_deg":89.019,"raan_deg":12.5725,"arg_perigee_deg":97.1944,"mean_anomaly_deg":262.9456,"bstar":3.4449e-5,"rev_number":1724,"period_min":106.58545368285,"perigee_km":1066.8470439268,"apogee_km":1070.1056819344,"semimajor_km":7446.6133629306,"source":"CELESTRAK","updated_at":"2026-09-20T09:00:24.680716Z"}}